Location: Most
(50.5133°N, 13.6207°E)
Time: 15:48:57
(UTC+01:00)

SEEDS - Visible Passes

Search period start: 28 November 2021 00:00
Search period end: 08 December 2021 00:00
Orbit: 583 x 602 km, 97.6° (Epoch: 28 November)

Date Brightness Start Highest point End Pass type
(mag) Time Alt. Az. Time Alt. Az. Time Alt. Az.
28 Nov ? 04:26:36 10° NNE 04:27:50 18° NNE 04:27:50 18° NNE visible
28 Nov ? 06:02:53 10° NNW 06:04:24 17° NNW 06:04:24 17° NNW visible
28 Nov ? 16:59:23 10° SW 17:01:56 16° W 17:04:29 10° NW visible
29 Nov ? 04:35:24 10° NNE 04:36:31 18° NNE 04:36:31 18° NNE visible
29 Nov ? 06:11:58 10° NNW 06:13:06 14° NNW 06:13:06 14° NNW visible
29 Nov ? 17:08:59 10° WSW 17:10:54 13° W 17:12:48 10° WNW visible
30 Nov ? 04:44:13 10° NNE 04:45:13 17° NNE 04:45:13 17° NNE visible
30 Nov ? 06:21:08 10° NNW 06:21:48 12° NNW 06:21:48 12° NNW visible
30 Nov ? 17:19:09 10° W 17:19:51 10° W 17:20:33 10° WNW visible
01 Dec ? 04:53:03 10° NNE 04:53:57 16° NNE 04:53:57 16° NNE visible
01 Dec ? 06:30:26 10° NNW 06:30:31 10° NNW 06:30:31 10° NNW visible
02 Dec ? 05:01:55 10° N 05:02:40 15° N 05:02:40 15° N visible
03 Dec ? 05:10:48 10° N 05:11:24 14° N 05:11:24 14° N visible
04 Dec ? 05:19:41 10° N 05:20:09 13° N 05:20:09 13° N visible
05 Dec ? 05:28:36 10° N 05:28:54 12° N 05:28:54 12° N visible
06 Dec ? 05:37:33 10° N 05:37:40 11° N 05:37:40 11° N visible
07 Dec ? 16:42:32 10° SW 16:45:43 21° W 16:48:56 10° NW visible
